This demonstration page uses our WeatherBlox Daily Observations layout. Learn more.

Left ArrowRight Arrow

Hourly Observations for October 23, 2020

Temp ( °F °C ) Dew Point ( °F °C ) Humidity (%) Winds ( mph kmh ) Pressure ( in mb ) Visibility ( mi km ) Precip ( " mm )
12:53 am 00:53 Clear 69 20.6 57 13.9 66 66 SE 8 13 29.75 1008 10 16 0.00 0.00
1:53 am 01:53 Clear 66 18.9 57 13.9 73 73 SE 7 11 29.76 1008 10 16 0.00 0.00
2:53 am 02:53 Clear 63 17.2 57 13.9 81 81 SSE 8 13 29.77 1008 10 16 0.00 0.00
3:53 am 03:53 Clear 60 15.6 56 13.3 86 86 SSE 7 11 29.78 1009 10 16 0.00 0.00
4:53 am 04:53 Clear 56 13.3 53 11.7 90 90 ENE 3 6 29.79 1009 10 16 0.00 0.00
5:53 am 05:53 Clear 55 12.8 44 6.7 67 67 NNE 21 33 29.85 1011 10 16 0.00 0.00
7:53 am 07:53 Clear 49 9.4 39 3.9 69 69 N 20 31 30.00 1016 10 16 0.00 0.00
8:53 am 08:53 Sunny 50 10 39 3.9 66 66 N 16 26 30.06 1018 10 16 0.00 0.00
10:53 am 10:53 Cloudy 53 11.7 40 4.4 61 61 N 20 31 30.17 1022 10 16 0.00 0.00
11:53 am 11:53 Cloudy 55 12.8 39 3.9 55 55 NNE 14 22 30.19 1022 10 16 0.00 0.00
12:38 pm 12:38 Cloudy 55 12.8 38 3.3 53 53 NNE 16 26 30.25 1024 10 16 0.00 0.00
12:53 pm 12:53 Cloudy 56 13.3 38 3.3 51 51 NNE 15 24 30.20 1023 10 16 0.00 0.00
1:26 pm 13:26 Cloudy 55 12.8 37 2.8 51 51 NNE 16 26 30.24 1024 10 16 0.00 0.00
1:53 pm 13:53 Cloudy 56 13.3 37 2.8 49 49 NNE 17 28 30.19 1022 10 16 0.00 0.00
2:53 pm 14:53 Cloudy 57 13.9 37 2.8 47 47 NE 15 24 30.17 1022 10 16 0.00 0.00
3:53 pm 15:53 Cloudy 58 14.4 36 2.2 44 44 N 15 24 30.15 1021 10 16 0.00 0.00
4:53 pm 16:53 Cloudy 60 15.6 36 2.2 41 41 NNE 13 20 30.15 1021 10 16 0.00 0.00
5:53 pm 17:53 Cloudy 59 15 36 2.2 42 42 NE 9 15 30.16 1021 10 16 0.00 0.00
6:53 pm 18:53 Cloudy 57 13.9 36 2.2 45 45 ENE 12 19 30.17 1022 10 16 0.00 0.00
7:53 pm 19:53 Clear 55 12.8 34 1.1 45 45 NE 9 15 30.19 1022 10 16 0.00 0.00
8:53 pm 20:53 Clear 52 11.1 33 0.6 49 49 NNE 9 15 30.21 1023 10 16 0.00 0.00
9:53 pm 21:53 Clear 49 9.4 32 0 52 52 NE 6 9 30.22 1023 10 16 0.00 0.00
10:53 pm 22:53 Clear 46 7.8 32 0 58 58 ENE 5 7 30.23 1024 10 16 0.00 0.00
11:53 pm 23:53 Clear 45 7.2 32 0 61 61 ENE 5 7 30.23 1024 10 16 0.00 0.00

Powered by AerisWeather